User: anonymous   Login
Location: Unspecified
(0.0000°N, 0.0000°E)
Time: 03:50:14
(UTC+00:00)
Language:

Snapshot - Orbit

View from above orbital plane
View from above orbital plane
View from above satellite
View from above satellite

Ground track
Ground track

The orbit data is extracted from the following two-line orbital elements,

1 01314U 65027A   14326.81756034 -.00000151  00000-0 -59026-3 0  7238
2 01314 090.2983 258.9462 0031605 141.7040 271.0534 12.91738232 86048
Epoch (UTC): 22 November 2014 19:37:17
Eccentricity: 0.0031605
inclination: 90.2983°
perigee height: 1270 km
apogee height: 1319 km
right ascension of ascending node: 258.9462°
argument of perigee: 141.7040°
revolutions per day: 12.91738232
mean anomaly at epoch: 271.0534°
orbit number at epoch: 8604

The dashed part of the orbit path shows where the satellite is in the earth's shadow,  

DLR